Location: Newark
(52.2090°N, 4.1550°W)
Time: 13:31:53
(UTC+00:00)

Transit 2A Rocket - All Passes

Search period start: 23 October 2019 00:00
Search period end: 02 November 2019 00:00
Orbit: 594 x 909 km, 66.7° (Epoch: 22 October)

Date Brightness Start Highest point End Pass type
(mag) Time Alt. Az. Time Alt. Az. Time Alt. Az.
23 Oct - 03:08:32 10° ESE 03:09:49 11° ESE 03:11:06 10° E visible
23 Oct - 04:46:41 10° SSW 04:51:36 64° SE 04:56:09 10° NE visible
23 Oct - 06:30:14 10° W 06:34:28 30° NW 06:38:27 10° NNE daylight
23 Oct - 08:16:01 10° NW 08:18:24 14° N 08:20:44 10° NNE daylight
23 Oct - 10:00:13 10° NNW 10:02:48 15° NNE 10:05:20 10° NE daylight
23 Oct - 11:42:26 10° NNW 11:46:32 39° NE 11:50:36 10° ESE daylight
23 Oct - 13:25:04 10° NW 13:29:03 37° WSW 13:33:03 10° S daylight
24 Oct - 04:04:32 10° S 04:09:10 40° ESE 04:13:28 10° NE visible
24 Oct - 05:47:07 10° WSW 05:51:44 42° NW 05:56:02 10° NNE visible
24 Oct - 07:32:32 10° WNW 07:35:24 16° NNW 07:38:10 10° NNE daylight
24 Oct - 09:17:35 10° NNW 09:19:47 13° N 09:21:56 10° NE daylight
24 Oct - 11:00:01 10° NNW 11:03:47 27° NE 11:07:31 10° E daylight
24 Oct - 12:42:22 10° NW 12:46:39 62° SW 12:50:57 10° SSE daylight
25 Oct - 03:22:48 10° SSE 03:26:49 25° ESE 03:30:36 10° ENE visible
25 Oct - 05:04:14 10° SW 05:09:05 62° NW 05:13:35 10° NE visible
25 Oct - 06:49:04 10° WNW 06:52:27 19° NNW 06:55:42 10° NNE daylight
25 Oct - 08:34:43 10° NNW 08:36:44 13° N 08:38:42 10° NNE daylight
25 Oct - 10:17:36 10° NNW 10:20:57 21° NNE 10:24:15 10° ENE daylight
25 Oct - 11:59:48 10° NW 12:04:09 80° NE 12:08:30 10° SE daylight
25 Oct - 13:43:27 10° WNW 13:46:06 16° WSW 13:48:46 10° SSW daylight
26 Oct - 02:41:42 10° SE 02:44:34 15° ESE 02:47:17 10° ENE visible
26 Oct - 04:21:35 10° SW 04:26:31 86° SE 04:31:05 10° NE visible
26 Oct - 06:05:41 10° W 06:09:35 25° NNW 06:13:17 10° NNE visible
26 Oct - 07:51:33 10° NW 07:53:40 13° N 07:55:45 10° NNE daylight
26 Oct - 09:35:09 10° NNW 09:38:01 17° NNE 09:40:51 10° ENE daylight
26 Oct - 11:17:18 10° NNW 11:21:34 51° NE 11:25:47 10° ESE daylight
26 Oct - 13:00:13 10° WNW 13:03:51 27° WSW 13:07:31 10° S daylight
27 Oct - 03:39:14 10° SSW 03:44:02 54° ESE 03:48:30 10° NE visible
27 Oct - 05:22:27 10° WSW 05:26:47 33° NW 05:30:52 10° NNE visible
27 Oct - 07:08:10 10° NW 07:10:38 14° NNW 07:13:04 10° NNE daylight
27 Oct - 08:52:37 10° NNW 08:55:02 14° NNE 08:57:25 10° NE daylight
27 Oct - 10:34:52 10° NNW 10:38:52 34° NE 10:42:50 10° ESE daylight
27 Oct - 12:17:23 10° NW 12:21:30 44° WSW 12:25:39 10° SSE daylight
28 Oct - 02:57:13 10° S 03:01:38 33° ESE 03:05:46 10° NE visible
28 Oct - 04:39:25 10° WSW 04:44:05 47° NW 04:48:27 10° NNE visible
28 Oct - 06:24:40 10° WNW 06:27:39 17° NNW 06:30:33 10° NNE visible
28 Oct - 08:09:57 10° NNW 08:12:00 13° N 08:14:02 10° NE daylight
28 Oct - 09:52:28 10° NNW 09:56:05 25° NNE 09:59:40 10° E daylight
28 Oct - 11:34:45 10° NW 11:39:04 75° SW 11:43:25 10° SSE daylight
28 Oct - 13:19:32 10° W 13:20:48 11° WSW 13:22:06 10° SW daylight
29 Oct - 02:15:40 10° SSE 02:19:19 21° ESE 02:22:47 10° ENE visible
29 Oct - 03:56:36 10° SW 04:01:28 72° NW 04:05:59 10° NE visible
29 Oct - 05:41:13 10° WNW 05:44:44 21° NNW 05:48:07 10° NNE visible
29 Oct - 07:26:59 10° NNW 07:28:57 13° N 07:30:53 10° NNE daylight
29 Oct - 09:10:02 10° NNW 09:13:13 19° NNE 09:16:22 10° ENE daylight
29 Oct - 10:52:13 10° NW 10:56:32 68° NE 11:00:52 10° SE daylight
29 Oct - 12:35:32 10° WNW 12:38:37 19° WSW 12:41:43 10° SSW daylight
30 Oct - 01:34:58 10° SE 01:37:05 13° ESE 01:39:07 10° E visible
30 Oct - 03:14:04 10° SSW 03:18:56 74° SE 03:23:28 10° NE visible
30 Oct - 04:57:52 10° W 05:01:53 27° NNW 05:05:42 10° NNE visible
30 Oct - 06:43:43 10° NW 06:45:54 13° N 06:48:03 10° NNE daylight
30 Oct - 08:27:34 10° NNW 08:30:17 16° NNE 08:32:56 10° NE daylight
30 Oct - 10:09:45 10° NNW 10:13:54 44° NE 10:18:04 10° ESE daylight
30 Oct - 11:52:29 10° NW 11:56:19 32° WSW 12:00:12 10° S daylight
31 Oct - 02:31:49 10° SSW 02:36:29 45° ESE 02:40:50 10° NE visible
31 Oct - 04:14:42 10° WSW 04:19:08 37° NW 04:23:18 10° NNE visible
31 Oct - 06:00:16 10° NW 06:02:53 15° NNW 06:05:26 10° NNE visible
31 Oct - 07:45:01 10° NNW 07:47:16 14° N 07:49:29 10° NE daylight
31 Oct - 09:27:19 10° NNW 09:31:11 30° NE 09:35:03 10° E daylight
31 Oct - 11:09:44 10° NW 11:13:57 53° WSW 11:18:12 10° SSE daylight
01 Nov - 01:49:56 10° S 01:54:07 28° ESE 01:58:01 10° ENE visible
01 Nov - 03:31:44 10° WSW 03:36:27 54° NW 03:40:52 10° NNE visible
01 Nov - 05:16:47 10° WNW 05:19:55 18° NNW 05:22:57 10° NNE visible
01 Nov - 07:02:16 10° NNW 07:04:13 13° N 07:06:10 10° NNE daylight
01 Nov - 08:44:55 10° NNW 08:48:23 23° NNE 08:51:49 10° E daylight
01 Nov - 10:27:08 10° NW 10:31:28 88° SW 10:35:51 10° SE daylight
01 Nov - 12:11:10 10° WNW 12:13:20 14° WSW 12:15:32 10° SW daylight
